Regional Weather Roundup
Issued by NWS Portland, ME

Home | Current Version | Previous Version | Text Only | Print | Product List | Glossary On
Versions: 1 2 3 4 5 6 7 8 9 10 11 12 13 14 15 16 17 18 19 20 21 22 23 24 25 26 27 28 29 30 31 32 33 34 35 36 37 38 39 40 41 42 43 44 45 46 47 48 49 50
000
ASUS41 KGYX 200805
RWRGYX
WEATHER ROUNDUP FOR MAINE AND NEW HAMPSHIRE
NATIONAL WEATHER SERVICE GRAY ME
400 AM EDT WED AUG 20 2014

MEZ002-005-006-010-012-015-018-020-021-024-026-027-029-200900-
MAINE

CITY           SKY/WX    TMP DP  RH WIND       PRES   REMARKS
PORTLAND       CLEAR     55  52  89 CALM      29.98S
SANFORD        CLEAR     48  43  81 CALM      29.98S
BAR HARBOR     CLEAR     55  55 100 CALM      29.96S
WISCASSET      MOCLDY    51  50  96 CALM      29.99S
ROCKLAND       CLEAR     55  54  94 W6        29.96S
FRYEBURG       FOG       49  47  93 CALM      29.99S VSB 1/2
LEWISTONAUBURN CLEAR     52  48  87 CALM      29.98S
AUGUSTA        CLEAR     55  53  93 CALM      29.98S
WATERVILLE     CLEAR     54  54 100 CALM      29.94S
BANGOR         CLEAR     56  53  90 CALM      29.97R
GREENVILLE       N/A     56  54  93 NW3       29.97S
MILLINOCKET    CLEAR     55  53  93 CALM      29.97R
HOULTON        CLEAR     47  46  97 S3        29.93S
PRESQUE ISLE   CLEAR     52  48  87 CALM      29.93R
FRENCHVILLE    CLEAR     56  52  86 NW6       29.94R
CARIBOU        CLEAR     56  53  90 CALM      29.93R
$$

NHZ002-005-008-009-011-012-014-200900-
NEW HAMPSHIRE

CITY           SKY/WX    TMP DP  RH WIND       PRES   REMARKS
PORTSMOUTH     PTCLDY    56  55  94 NW2       29.96S
ROCHESTER      CLEAR     53  51  93 NW7       29.97S
NASHUA         CLEAR     56  54  93 CALM      29.98S
MANCHESTER     PTCLDY    59  55  87 CALM      29.96S
CONCORD        CLEAR     52  51  97 CALM      29.98S
LACONIA        CLEAR     55  52  88 CALM      29.97F
PLYMOUTH       FOG       49  49 100 CALM      30.00S VSB 1/4
BERLIN         FOG       48  48 100 CALM      30.01F VSB 1/4
WHITEFIELD     CLOUDY    46  44  93 CALM      30.01S FOG
JAFFREY        CLEAR     50  48  93 CALM      30.00F
LEBANON        CLOUDY    53  51  93 NE5       29.98F FOG
MT WASHINGTON  PTCLDY    43  41  93 S8          N/A
$$

VTZ005-007-008-200900-
VERMONT

CITY           SKY/WX    TMP DP  RH WIND       PRES   REMARKS
ST JOHNSBURY     N/A     52  51  97 MISG      29.99R
MONTPELIER     FOG       48  48 100 CALM      30.03S VSB 1/2
BURLINGTON     CLEAR     55  52  89 CALM      29.95S
$$

MAZ007-012-024-CTZ003-RIZ002-NYZ038-NYZ072-200900-
SOUTHERN NEW ENGLAND AND NY

CITY           SKY/WX    TMP DP  RH WIND       PRES   REMARKS
BOSTON         PTCLDY    64  56  75 CALM      29.96S
WORCESTER      CLEAR     60  57  89 W8        29.98F
NANTUCKET      MOCLDY    56  53  90 CALM      29.96R
PROVIDENCE     PTCLDY    59  56  89 W5        29.97R
HARTFORD       PTCLDY    58  55  90 CALM      29.96S
ALBANY         MOCLDY    60  57  89 N3        29.95S
NEW YORK CITY  PTCLDY    71  64  78 S3        29.94S
$$

ANZ081-ANZ082-ANZ150-NHZ014-MEZ023>029-200900-
COASTAL MARINE OBSERVATIONS

STATION/POSITION TIME  TEMP    WIND        PRES    WAVE
                       AIR SEA DIR/SP/G            HT/PER
                 (UTC) (F)     (DEG/KT/KT) (MB)    (FT/S)
MATINICUS ROCK   0700          270/ 11/ 11 1014.4R
PORTLAND WX BUOY 0750   61 63  340/  2/  2 1015.0F   1/ 8
WELLS            0700   57 62  320/  1/  2 1014.0R
ISLE OF SHOALS   0700   62     310/  4/  5 1014.3R
JEFFREYS LEDGE   0721      65                N/A     1/ 8
CASHES LEDGE BUO 0750   65 66              1014.4F   1/ 8
$$

.............KEY..............
   WCI - WIND CHILL
   TC  - TEMPERATURE IN CELSIUS
   VSB - VISIBILITY IN MILES
   HX  - HEAT INDEX
   FAIR- INDICATES FEW OR NO CLOUDS BELOW 12,000 FT, WITH NO
         SIGNIFICANT WEATHER AND/OR OBSTRUCTIONS TO VISIBILITY.





USA.gov is the U.S. government's official web portal to all federal, state and local government web resources and services.